[[{"header":{"parameterUnit":"m.s-1","parameterCategory":1,"la1":30.2991,"la2":30.254,"lo1":-89.0895,"lo2":-89.0444,"dy":0.0017,"dx":0.0017,"nx":28,"ny":28,"refTime":"2025-05-30T03:00:00:Z","depth":0,"parameterNumber":2,"parameterNumberName":"U-component_of_WINDS"},"data":[0,0,0,0,0,0,0,0,0,0,0,0,0,0,0,0,0,0,0,0,0,0,0,0,0,0,0,0,0,0,0,0,0,0,0,0,0,0,0,0,0,0,0,0,0,0,0,0,0,0,0,0,0,0,0,0,0,0,3.95,3.9502,0,3.9685,3.9687,3.9689,3.968,3.9678,3.9675,3.9673,3.9864,3.9871,3.9879,0,0,0,0,0,0,0,0,0,0,0,0,0,3.9143,3.915,3.95,3.9502,3.9505,3.9684,3.9687,3.9689,3.9681,3.9678,3.9674,3.9671,3.9861,3.987,3.9879,0,0,0,0,0,0,0,0,0,0,0,0,0,3.931,3.9152,3.95,3.9522,3.9526,3.9684,3.9687,3.969,3.9681,3.9678,3.9674,3.967,3.9858,3.9869,3.9881,4.0029,0,0,3.9915,3.992,0,0,0,0,0,0,0,0,3.9301,3.9323,3.9516,3.9521,3.9525,3.9655,3.9631,3.9804,3.9682,3.9622,3.9673,3.9668,3.9798,3.9814,3.9857,4.0038,4.0046,3.9916,3.9923,3.9928,3.9931,0,0,0,0,0,0,0,3.9289,3.9315,3.9573,3.9519,3.9525,3.9524,3.9543,3.9664,3.973,3.9627,3.9627,3.9649,3.9799,3.9846,3.9862,4.0049,3.9916,3.9926,3.9933,3.9937,4.0362,4.0366,0,0,0,0,0,0,3.9272,3.9306,3.9567,3.9579,3.9401,3.9533,3.9555,3.9618,3.9729,3.9742,3.9652,3.9648,3.9829,3.9848,3.9868,4.005,3.9928,3.9938,3.9945,4.0358,4.0363,4.0368,0,0,0,0,0,0,3.9265,3.9296,3.956,3.9442,3.9476,3.9544,3.9614,3.9623,3.967,3.9747,3.9759,3.9688,3.9827,3.9852,3.9989,4.0056,3.9943,3.9954,4.0352,4.0359,4.0366,4.0413,0,0,0,0,0,0,3.9254,3.9293,3.9349,3.9444,3.9482,3.9677,3.9618,3.963,3.9689,3.9686,3.9784,3.9796,3.9825,3.9972,4.0,4.007,3.9962,4.0347,4.0355,4.0363,4.0406,4.0421,4.0433,0,0,0,0,0,3.9242,3.9356,3.9352,3.9384,3.9554,3.9681,3.9703,3.9733,3.9695,3.9752,3.9802,3.9793,4.0045,3.9986,4.0018,4.0091,4.0343,4.0353,4.0363,4.04,4.0418,4.0433,0,0,0,0,0,0,3.9268,3.9368,3.9366,3.9513,3.9588,3.9679,3.9752,3.9751,3.984,3.9832,3.9867,3.989,4.0027,4.0073,4.0007,4.0242,4.0189,4.0206,4.0206,4.0224,4.0237,4.0223,3.9972,0,0,0,0,0,3.9291,3.9385,3.9468,3.959,3.9628,3.9684,3.974,3.9757,3.9837,3.9869,3.9929,4.0007,4.0104,4.0167,4.026,4.0413,4.0434,4.0479,4.0493,4.0504,4.0518,4.0603,4.0623,4.0401,4.0401,4.0401,0,0,3.9339,3.9406,3.9463,3.9597,3.9657,3.9754,3.9711,3.9815,3.9888,3.9885,4.0017,4.0065,4.0154,4.03,4.0367,4.0343,4.0584,4.0517,4.0525,4.0533,4.0615,4.0636,4.0655,4.0408,4.0407,4.0406,0,0,3.9477,3.9537,3.9645,3.9706,3.9798,3.9835,3.9861,3.9952,3.9983,4.0116,4.0116,4.0204,4.037,4.0434,4.0488,4.0652,4.0647,4.0681,4.0752,4.0835,4.0852,4.0868,4.0926,4.0946,4.0695,4.0695,4.0695,0,3.9525,3.967,3.9701,3.9806,3.9866,3.9868,3.9978,4.0037,4.0154,4.0196,4.0167,4.0375,4.0436,4.0597,4.0637,4.0681,4.0712,4.0669,4.0847,4.0863,4.0878,4.0934,4.0956,4.0699,4.0698,4.0698,4.0698,0,3.9726,3.9827,3.9904,4.0016,4.0085,4.0192,4.024,4.0306,4.0318,4.0358,4.0494,4.0567,4.0675,4.0715,4.0728,4.0879,4.086,4.0839,4.0786,4.0902,4.0955,4.0977,4.0704,4.0703,4.0702,4.0701,0,0,3.9883,4.0012,4.004,4.0091,4.0193,4.0272,4.0381,4.0486,4.0542,4.0624,4.0715,4.0856,4.0837,4.0899,4.092,4.0992,4.1117,4.0962,4.0965,4.0987,4.1287,4.1301,4.1325,4.1115,4.1119,4.1122,4.1279,0,4.003,4.022,4.0252,4.0419,4.0513,4.0518,4.0612,4.0686,4.0727,4.0813,4.0859,4.0958,4.0926,4.0963,4.1035,4.1086,4.1177,4.1075,4.1201,4.1205,4.1176,4.1353,4.1368,4.1512,4.13,4.1303,4.1306,0,4.0227,4.0313,4.0489,4.0579,4.062,4.0704,4.0803,4.0886,4.097,4.0995,4.1064,4.1077,4.119,4.1134,4.1291,4.1221,4.1275,4.1308,4.1314,4.1326,4.1261,4.1368,4.1559,4.158,4.1339,4.1336,4.1334,0,4.0322,4.0483,4.061,4.0654,4.0762,4.0821,4.0869,4.0949,4.1011,4.1098,4.1139,4.1239,4.1293,4.1371,4.141,4.1366,4.1565,4.1512,4.1589,4.1588,4.1629,4.1626,4.183,4.1666,4.1666,4.1665,4.1665,0,4.0483,4.059,4.0654,4.0732,4.0853,4.0889,4.1008,4.1055,4.1127,4.1214,4.1225,4.1307,4.1355,4.1445,4.1477,4.1602,4.1627,4.165,4.1657,4.1649,4.1645,4.1683,4.1673,4.1671,4.167,4.1669,4.1668,0,4.0609,4.0656,4.0794,4.0886,4.0911,4.0997,4.1075,4.1152,4.1193,4.1303,4.1332,4.1397,4.1503,4.155,4.1682,4.1703,4.1846,4.1846,4.1817,4.1819,4.1893,4.1885,4.2127,4.2161,4.1976,4.1978,4.1979,0,4.0707,4.079,4.0891,4.095,4.0999,4.1094,4.1157,4.1197,4.1262,4.1364,4.1428,4.1535,4.1621,4.1791,4.1851,4.1952,4.1954,4.2032,4.1969,4.1958,4.1954,4.1948,4.1956,4.2043,4.2045,4.2046,4.2047,0,4.0877,4.0896,4.0985,4.1084,4.1158,4.1238,4.1316,4.1364,4.1416,4.1489,4.1597,4.1664,4.1798,4.1904,4.2009,4.2059,4.2063,4.2067,4.209,4.2081,4.206,4.2071,4.1847,4.2061,4.2059,4.2058,4.2058,4.2057,4.0992,4.1065,4.1147,4.1247,4.131,4.1383,4.1459,4.1509,4.16,4.1711,4.173,4.1845,4.1929,4.207,4.2124,4.2216,4.2197,4.2231,4.2239,4.2246,4.225,4.2047,4.2236,4.2235,4.2235,4.2235,4.2234,0,4.116,4.1213,4.1305,4.1413,4.1492,4.1488,4.1574,4.1641,4.1742,4.1819,4.1904,4.2029,4.2132,4.22,4.2304,4.2365,4.2369,4.2391,4.2386,4.2398,4.2261,4.223,4.2386,4.2386,4.2386,4.2386,4.2385,4.2385,4.1257,4.1382,4.1411,4.1567,4.162,4.1733,4.1782,4.185,4.1912,4.205,4.2135,4.2179,4.2253,4.2363,4.2458,4.2475,4.2513,4.2535,4.2552,4.2423,4.2407,4.2392,4.2363,4.2543,4.2544,4.268,4.2681,4.2682]},{"header":{"parameterUnit":"m.s-1","parameterCategory":1,"la1":30.2991,"la2":30.254,"lo1":-89.0895,"lo2":-89.0444,"dy":0.0017,"dx":0.0017,"nx":28,"ny":28,"refTime":"2025-05-30T03:00:00:Z","depth":0,"parameterNumber":3,"parameterNumberName":"V-component_of_WINDS"},"data":[0,0,0,0,0,0,0,0,0,0,0,0,0,0,0,0,0,0,0,0,0,0,0,0,0,0,0,0,0,0,0,0,0,0,0,0,0,0,0,0,0,0,0,0,0,0,0,0,0,0,0,0,0,0,0,0,0,0,-2.6174,-2.6176,0,-2.6318,-2.632,-2.6322,-2.6368,-2.6367,-2.6366,-2.6366,-2.6514,-2.6518,-2.6523,0,0,0,0,0,0,0,0,0,0,0,0,0,-2.5938,-2.5942,-2.6174,-2.6176,-2.6178,-2.6318,-2.632,-2.6322,-2.6368,-2.6367,-2.6366,-2.6366,-2.6512,-2.6518,-2.6523,0,0,0,0,0,0,0,0,0,0,0,0,0,-2.6057,-2.5944,-2.6174,-2.6217,-2.6223,-2.6318,-2.632,-2.6323,-2.6368,-2.6367,-2.6366,-2.6365,-2.6511,-2.6517,-2.6524,-2.6586,0,0,-2.6545,-2.6548,0,0,0,0,0,0,0,0,-2.6051,-2.6066,-2.6209,-2.6215,-2.6221,-2.6324,-2.6291,-2.6411,-2.6368,-2.6313,-2.6366,-2.6365,-2.6452,-2.6463,-2.6493,-2.6593,-2.6599,-2.6546,-2.655,-2.6553,-2.6555,0,0,0,0,0,0,0,-2.6042,-2.606,-2.6231,-2.6211,-2.6218,-2.623,-2.6246,-2.6314,-2.6386,-2.6318,-2.6321,-2.6338,-2.6455,-2.6486,-2.6496,-2.6602,-2.6545,-2.6551,-2.6556,-2.6558,-2.6761,-2.6762,0,0,0,0,0,0,-2.6027,-2.6053,-2.6227,-2.6236,-2.6132,-2.6235,-2.6253,-2.6292,-2.6385,-2.6399,-2.6338,-2.6339,-2.6475,-2.6488,-2.6502,-2.6581,-2.6553,-2.6559,-2.6563,-2.6759,-2.6761,-2.6762,0,0,0,0,0,0,-2.6021,-2.6042,-2.6221,-2.6145,-2.6169,-2.624,-2.6284,-2.6295,-2.6327,-2.6401,-2.6414,-2.6357,-2.6474,-2.6492,-2.6565,-2.6586,-2.6562,-2.6568,-2.6758,-2.676,-2.6762,-2.6738,0,0,0,0,0,0,-2.6014,-2.604,-2.6064,-2.6146,-2.6173,-2.6281,-2.6285,-2.6299,-2.6338,-2.6341,-2.6422,-2.6435,-2.6475,-2.6554,-2.6572,-2.6595,-2.6574,-2.6756,-2.6759,-2.6761,-2.6738,-2.6739,-2.6741,0,0,0,0,0,-2.6006,-2.6051,-2.6065,-2.6085,-2.6205,-2.6282,-2.6298,-2.6343,-2.634,-2.6365,-2.6413,-2.6432,-2.6581,-2.6561,-2.6581,-2.6607,-2.6755,-2.6758,-2.6761,-2.6737,-2.6739,-2.6741,0,0,0,0,0,0,-2.597,-2.6063,-2.6079,-2.6152,-2.6209,-2.629,-2.6323,-2.6344,-2.6403,-2.6403,-2.6457,-2.6475,-2.6544,-2.6583,-2.6559,-2.6672,-2.6669,-2.6676,-2.6644,-2.6647,-2.6648,-2.6637,-2.6579,0,0,0,0,0,-2.5971,-2.6026,-2.6104,-2.6162,-2.6189,-2.6251,-2.6287,-2.6317,-2.6378,-2.6402,-2.6456,-2.6514,-2.6574,-2.6613,-2.6672,-2.6744,-2.6762,-2.6771,-2.6773,-2.6774,-2.6779,-2.682,-2.6825,-2.6772,-2.6772,-2.6772,0,0,-2.5973,-2.603,-2.6062,-2.6156,-2.6204,-2.626,-2.6271,-2.633,-2.6372,-2.6411,-2.6483,-2.6524,-2.6593,-2.6666,-2.67,-2.6701,-2.6798,-2.6778,-2.6778,-2.6783,-2.6823,-2.6828,-2.6833,-2.6774,-2.6773,-2.6773,0,0,-2.6005,-2.6054,-2.6107,-2.6155,-2.6227,-2.6268,-2.628,-2.6358,-2.6387,-2.646,-2.6491,-2.6542,-2.6644,-2.6692,-2.673,-2.6781,-2.6801,-2.6799,-2.6807,-2.6846,-2.685,-2.6854,-2.6872,-2.6878,-2.6804,-2.6804,-2.6804,0,-2.5998,-2.6084,-2.6132,-2.6189,-2.623,-2.6268,-2.6322,-2.6366,-2.6453,-2.648,-2.648,-2.6609,-2.6658,-2.6742,-2.6755,-2.6784,-2.68,-2.6789,-2.6846,-2.685,-2.6855,-2.6872,-2.6879,-2.6803,-2.6803,-2.6803,-2.6803,0,-2.6072,-2.6131,-2.6165,-2.6249,-2.6293,-2.6349,-2.6405,-2.6444,-2.6471,-2.6511,-2.6585,-2.6646,-2.6718,-2.6741,-2.6767,-2.6829,-2.6827,-2.6835,-2.6833,-2.6858,-2.6875,-2.6883,-2.6802,-2.6802,-2.6803,-2.6803,0,0,-2.6085,-2.6195,-2.6206,-2.6245,-2.6327,-2.6374,-2.6431,-2.6502,-2.6534,-2.6594,-2.6643,-2.6729,-2.6738,-2.6781,-2.6813,-2.6847,-2.6883,-2.6852,-2.6854,-2.6855,-2.6955,-2.6947,-2.6954,-2.6897,-2.6899,-2.69,-2.6949,0,-2.6128,-2.6231,-2.6276,-2.6359,-2.6414,-2.6451,-2.6502,-2.6557,-2.6597,-2.665,-2.6695,-2.6754,-2.6761,-2.6787,-2.6823,-2.6871,-2.6904,-2.6869,-2.6944,-2.6946,-2.6924,-2.6964,-2.6956,-2.6999,-2.6956,-2.6957,-2.6958,0,-2.6191,-2.625,-2.6339,-2.6414,-2.6439,-2.6483,-2.6552,-2.6602,-2.6666,-2.6693,-2.6741,-2.6772,-2.6834,-2.6827,-2.6913,-2.6888,-2.6922,-2.695,-2.6953,-2.6961,-2.6953,-2.6972,-2.7014,-2.702,-2.6969,-2.6968,-2.6968,0,-2.6191,-2.6293,-2.6359,-2.6391,-2.6481,-2.6511,-2.655,-2.6614,-2.6654,-2.6714,-2.674,-2.6807,-2.6843,-2.6894,-2.6942,-2.6933,-2.7023,-2.7021,-2.7047,-2.7046,-2.7064,-2.7062,-2.711,-2.7086,-2.7086,-2.7086,-2.7086,0,-2.6233,-2.6285,-2.636,-2.6401,-2.6461,-2.6512,-2.6571,-2.6612,-2.6669,-2.6718,-2.6755,-2.6801,-2.6861,-2.6915,-2.6953,-2.7018,-2.7035,-2.7058,-2.7067,-2.7054,-2.7051,-2.7077,-2.7075,-2.7088,-2.7087,-2.7087,-2.7087,0,-2.6243,-2.6295,-2.637,-2.6449,-2.647,-2.6511,-2.6579,-2.662,-2.6662,-2.6724,-2.6742,-2.6808,-2.6873,-2.6926,-2.7011,-2.7037,-2.7105,-2.7116,-2.7083,-2.7087,-2.711,-2.7107,-2.7176,-2.7188,-2.7156,-2.7156,-2.7156,0,-2.6266,-2.6307,-2.6391,-2.6427,-2.6465,-2.6522,-2.6563,-2.6615,-2.6656,-2.6733,-2.6765,-2.6832,-2.6889,-2.6991,-2.7047,-2.7112,-2.7125,-2.7145,-2.7135,-2.7121,-2.7125,-2.7121,-2.7126,-2.7145,-2.7145,-2.7146,-2.7146,0,-2.6301,-2.6325,-2.6382,-2.6448,-2.6496,-2.6551,-2.6606,-2.6634,-2.6696,-2.674,-2.6807,-2.6851,-2.6938,-2.7005,-2.7077,-2.7117,-2.7142,-2.7148,-2.7158,-2.7145,-2.7123,-2.7135,-2.7085,-2.7146,-2.7146,-2.7146,-2.7146,-2.7146,-2.6318,-2.6356,-2.6421,-2.6484,-2.6531,-2.6583,-2.6625,-2.6672,-2.6729,-2.6803,-2.6831,-2.69,-2.6964,-2.7062,-2.7103,-2.7158,-2.716,-2.7174,-2.7177,-2.7179,-2.7178,-2.7115,-2.7171,-2.7171,-2.7171,-2.7171,-2.7171,0,-2.6355,-2.6398,-2.6455,-2.6532,-2.6581,-2.66,-2.6663,-2.6703,-2.6763,-2.682,-2.6875,-2.6952,-2.7017,-2.7078,-2.7146,-2.7178,-2.7191,-2.7194,-2.7192,-2.7201,-2.7172,-2.7156,-2.7183,-2.7183,-2.7183,-2.7183,-2.7183,-2.7182,-2.638,-2.6445,-2.6477,-2.6567,-2.6611,-2.6678,-2.6712,-2.6759,-2.6806,-2.689,-2.6944,-2.6983,-2.7042,-2.7115,-2.7175,-2.7192,-2.7215,-2.7215,-2.7234,-2.7205,-2.7203,-2.7201,-2.7187,-2.7219,-2.7219,-2.7259,-2.7259,-2.7259]}]]